Regional Weather Roundup
Issued by NWS

Home | Current Version | Previous Version | Graphics & Text | Print | Product List | Glossary On
Versions: 1 2 3 4 5 6 7 8 9 10 11 12 13 14 15 16 17 18 19 20 21 22 23 24 25 26 27 28 29 30 31 32 33 34 35 36 37 38 39 40 41 42 43 44 45 46 47 48 49 50
000
ASUS43 KDMX 021707
RWRIA

WEATHER ROUNDUP FOR IOWA
NATIONAL WEATHER SERVICE DES MOINES IA
1200 PM CDT SAT MAY 02 2015

NOTE: "FAIR" INDICATES FEW OR NO CLOUDS BELOW 12,000 FEET WITH NO
SIGNIFICANT WEATHER AND/OR OBSTRUCTIONS TO VISIBILITY.

* - THESE STATIONS ARE NOT NWS STATIONS...THUS NOT UNDER NWS
QUALITY CONTROL.  THEY ALSO DO NOT REPORT WEATHER SUCH
AS PRECIPITATION OR FOG.

IAZ001>003-012>014-020>022-031>034-043>046-021800-
   NORTHWEST IOWA

CITY           SKY/WX    TMP DP  RH WIND       PRES   REMARKS
CARROLL *      SUNNY     61  54  77 S26G36    29.91S
CHEROKEE *     SUNNY     70  55  60 SW14G23   29.90F
DENISON *      SUNNY     61  59  94 S20G25    29.89F
LE MARS *      SUNNY     73  55  53 S21G26    29.89F
ORANGE CITY *  SUNNY     70  54  56 S20       29.89F
SHELDON *      SUNNY     73  54  49 S17G23    29.87F
SIOUX CITY     MOSUNNY   73  53  49 S23G33    29.90R
SPENCER        MOSUNNY   73  51  46 S10       29.90S
STORM LAKE *   SUNNY     72  52  49 SW15G23   29.92S
$$

IAZ055>058-069>071-079>083-090>094-021800-
   SOUTHWEST IOWA

CITY           SKY/WX    TMP DP  RH WIND       PRES   REMARKS
ATLANTIC *     CLOUDY    59  55  88 S18G28    29.96F
AUDUBON *      DRIZZLE   59  54  82 S10G17    29.98R
CLARINDA *     PTSUNNY   57  54  88 SE3       30.04F
COUNCIL BLFS * SUNNY     61  59  94 S23G31    29.96S
CRESTON *      CLOUDY    57  55  94 SW13G20   30.03S
HARLAN  *      LGT RAIN  59  59 100 S13G23    29.99R
LAMONI         LGT RAIN  57  52  83 SW30G36   30.02S
RED OAK *      CLOUDY    57  55  94 SE16G23   30.00F
SHENANDOAH *   CLOUDY    57  54  88 SE9       30.00F
$$

IAZ047>049-059>061-072>074-084-021800-
   CENTRAL IOWA

CITY           SKY/WX    TMP DP  RH WIND       PRES   REMARKS
AMES           PTSUNNY   68  50  52 S14       29.95F
ANKENY *       MOSUNNY   64  50  59 S14       29.98S
CHARITON *     CLOUDY    61  50  67 SW15      30.03R
DES MOINES     CLOUDY    66  50  56 SW16      29.99S
GRINNELL*      MOSUNNY   70  46  43 S18G24    30.00S
KNOXVILLE *    PTSUNNY   64  46  52 SW13G22   30.01R
MARSHALLTOWN   PTSUNNY   71  49  45 SW17      29.96F
PELLA *        PTSUNNY   66  52  59 SW14G20   30.02R
PERRY *          N/A     66  54  63 SW22G28   29.96R
$$

IAZ004>006-015-016-023>025-035-036-021800-
   NORTH CENTRAL IOWA

CITY           SKY/WX    TMP DP  RH WIND       PRES   REMARKS
ALGONA *       SUNNY     70  50  49 SW14G20   29.91F
CLARION *      SUNNY     72  50  46 SW14      29.92F
ESTHERVILLE    MOSUNNY   69  50  50 S12       29.89F
FORT DODGE *   PTSUNNY   70  54  56 SW12      29.93F
MASON CITY     PTSUNNY   71  47  42 S15G22    29.94S
FOREST CITY *  SUNNY     70  45  40 S12       29.92F
IOWA FALLS *     N/A     70  50  49 SW16      29.95F
$$

IAZ007>011-017>019-026>030-037>042-050>054-066-021800-
   NORTHEAST IOWA

CITY           SKY/WX    TMP DP  RH WIND       PRES   REMARKS
CEDAR RAPIDS   CLOUDY    73  37  27 MISG      30.01F
CHARLES CITY * SUNNY     72  43  35 S23G29    29.95S
CLINTON *        N/A     72  41  33 S15       30.06F
DECORAH *      SUNNY     73  39  29 SW15G23   29.95F
DUBUQUE        SUNNY     72  41  32 SW13G22   30.02F
MONTICELLO *   SUNNY     73  37  27 SW16G23   30.01S
OELWEIN *      SUNNY     73  39  29 S23G30    29.99R
WATERLOO       PTSUNNY   72  43  35 S20G29    29.95F
$$

IAZ064-065-067-068-078-021800-
   EAST CENTRAL IOWA

CITY           SKY/WX    TMP DP  RH WIND       PRES   REMARKS
DAVENPORT      SUNNY     74  35  24 SW14G24   30.04F
IOWA CITY      CLOUDY    71  42  35 S16       30.04F
MT. PLEASANT * PTSUNNY   73  37  27 S13G18    30.04F
MUSCATINE *    SUNNY     73  39  29 SW14G20   30.03F
QUAD CITIES    MOSUNNY   74  35  24 SW12G21   30.03F
$$

IAZ062-063-075>077-085>089-095>099-021800-
   SOUTHEAST IOWA

CITY           SKY/WX    TMP DP  RH WIND       PRES   REMARKS
BURLINGTON     PTSUNNY   73  39  29 SW14      30.04F
FAIRFIELD *    CLOUDY    70  39  32 S13       30.03F
FORT MADISON * SUNNY     72  41  33 S8        30.06F
KEOKUK *       SUNNY     72  41  33 SW10      30.04F
OSKALOOSA *      N/A     70  43  37 SW14      30.02F
CENTERVILLE *  MOSUNNY   63  50  63 SW8       30.06R
OTTUMWA        PTSUNNY   67  45  45 S9        30.02F
WASHINGTON *   CLOUDY    72  41  33 SW13G20   30.03F
$$

ABBREVIATIONS USED IN REMARKS
   TC - TEMPERATURES IN CELSIUS
  WCI - WIND CHILL INDEX
   HX - HEAT INDEX
  VSB - VISIBILITY
$$



USA.gov is the U.S. government's official web portal to all federal, state and local government web resources and services.